Location: Caltech
(34.1382°N, 118.1253°W)
Time: 19:52:56
(UTC-08:00)

Lacrosse 5 - Visible Passes

Search period start: 06 February 2016 00:00
Search period end: 16 February 2016 00:00
Orbit: 715 x 722 km, 57.0° (Epoch: 17 January)

Date Brightness Start Highest point End Pass type
(mag) Time Alt. Az. Time Alt. Az. Time Alt. Az.
06 Feb 2.9 04:16:33 43° ENE 04:16:33 43° ENE 04:20:03 10° NE visible
06 Feb 3.3 05:55:48 14° WNW 05:58:21 20° NW 06:02:06 10° N visible
07 Feb 4.8 03:25:47 12° ENE 03:25:47 12° ENE 03:26:16 10° ENE visible
07 Feb 2.6 05:05:00 34° NW 05:05:00 34° NW 05:09:16 10° NNE visible
08 Feb 3.6 04:14:02 25° NNE 04:14:02 25° NNE 04:16:09 10° NNE visible
08 Feb 3.8 05:53:14 11° NW 05:54:57 13° NNW 05:57:12 10° N visible
09 Feb 3.5 05:02:09 19° NNW 05:02:09 19° NNW 05:04:51 10° NNE visible
10 Feb 4.2 04:10:57 15° NNE 04:10:57 15° NNE 04:12:00 10° NNE visible
11 Feb 4.0 04:58:51 12° NNW 04:58:51 12° NNW 04:59:59 10° N visible
12 Feb 4.5 04:07:30 10° N 04:07:30 10° N 04:07:35 10° NNE visible
